| time (UTC) | temp C | wind direction | speed KPH | gust KPH | rain 1hr cm | rain 24hr cm | rain mn cm | humidity % | barometer mb |
| 20260504004906 | 11 | 37 | 6.4 | 11.3 | 0.00 | 0.00 | 0.00 | 68 | 1019.3 |
| 20260504004405 | 11 | 36 | 8.0 | 12.9 | 0.00 | 0.00 | 0.00 | 67 | 1019.3 |
| 20260504001905 | 11 | 31 | 8.0 | 12.9 | 0.00 | 0.00 | 0.00 | 67 | 1019.4 |
| 20260504000906 | 11 | 28 | 9.7 | 14.5 | 0.00 | 0.00 | 0.00 | 68 | 1019.4 |
| 20260503234405 | 11 | 40 | 8.0 | 11.3 | 0.00 | 0.00 | 0.00 | 66 | 1019.6 |
| 20260503233905 | 11 | 40 | 8.0 | 11.3 | 0.00 | 0.00 | 0.00 | 67 | 1019.6 |
| 20260503231405 | 12 | 40 | 4.8 | 9.7 | 0.00 | 0.00 | 0.00 | 66 | 1019.7 |
| 20260503230406 | 12 | 41 | 8.0 | 14.5 | 0.00 | 0.00 | 0.00 | 67 | 1019.7 |
| 20260503223905 | 12 | 43 | 3.2 | 9.7 | 0.00 | 0.00 | 0.00 | 64 | 1019.7 |
| 20260503220906 | 12 | 37 | 8.0 | 12.9 | 0.00 | 0.00 | 0.00 | 64 | 1019.7 |
| 20260503220408 | 12 | 30 | 9.7 | 16.1 | 0.00 | 0.00 | 0.00 | 64 | 1019.7 |
| 20260503214407 | 12 | 42 | 4.8 | 9.7 | 0.00 | 0.00 | 0.00 | 63 | 1019.6 |
| 20260503211907 | 13 | 41 | 3.2 | 9.7 | 0.00 | 0.00 | 0.00 | 62 | 1019.4 |
| 20260503210406 | 13 | 44 | 1.6 | 16.1 | 0.00 | 0.00 | 0.00 | 60 | 1019.3 |
| 20260503204405 | 13 | 8 | 3.2 | 8.0 | 0.00 | 0.00 | 0.00 | 59 | 1019.2 |
| 20260503203408 | 13 | 6 | 3.2 | 9.7 | 0.00 | 0.00 | 0.00 | 58 | 1019.2 |
| 20260503201905 | 14 | 5 | 3.2 | 4.8 | 0.00 | 0.00 | 0.00 | 59 | 1019.1 |
| 20260503200905 | 14 | 5 | 3.2 | 9.7 | 0.00 | 0.00 | 0.00 | 57 | 1019.1 |
| 20260503194405 | 15 | 43 | 4.8 | 9.7 | 0.00 | 0.00 | 0.00 | 61 | 1019.1 |
| 20260503193906 | 15 | 43 | 4.8 | 8.0 | 0.00 | 0.00 | 0.00 | 62 | 1019.0 |
| 20260503191406 | 15 | 44 | 4.8 | 9.7 | 0.00 | 0.00 | 0.00 | 63 | 1018.7 |
| 20260503190407 | 15 | 44 | 8.0 | 12.9 | 0.00 | 0.00 | 0.00 | 64 | 1018.6 |
| 20260503184907 | 16 | 44 | 4.8 | 9.7 | 0.00 | 0.00 | 0.00 | 63 | 1018.6 |
| 20260503184407 | 16 | 27 | 6.4 | 12.9 | 0.00 | 0.00 | 0.00 | 63 | 1018.6 |
| 20260503183906 | 16 | 55 | 8.0 | 12.9 | 0.00 | 0.00 | 0.00 | 63 | 1018.5 |
| 20260503183407 | 16 | 35 | 9.7 | 12.9 | 0.00 | 0.00 | 0.00 | 63 | 1018.6 |
| 20260503181907 | 16 | 23 | 4.8 | 9.7 | 0.00 | 0.00 | 0.00 | 63 | 1018.4 |
| 20260503181407 | 17 | 23 | 3.2 | 9.7 | 0.00 | 0.00 | 0.00 | 62 | 1018.4 |
| 20260503180906 | 17 | 26 | 8.0 | 12.9 | 0.00 | 0.00 | 0.00 | 61 | 1018.3 |
| 20260503180406 | 17 | 26 | 8.0 | 12.9 | 0.00 | 0.00 | 0.00 | 61 | 1018.3 |
| 20260503174907 | 18 | 29 | 8.0 | 12.9 | 0.00 | 0.00 | 0.00 | 60 | 1018.2 |
| 20260503174407 | 18 | 29 | 9.7 | 16.1 | 0.00 | 0.00 | 0.00 | 59 | 1018.1 |
| 20260503173906 | 18 | 34 | 8.0 | 12.9 | 0.00 | 0.00 | 0.00 | 58 | 1018.0 |
| 20260503173406 | 18 | 36 | 6.4 | 11.3 | 0.00 | 0.00 | 0.00 | 57 | 1018.0 |
| 20260503171907 | 20 | 119 | 1.6 | 3.2 | 0.00 | 0.00 | 0.00 | 50 | 1018.0 |
| 20260503170906 | 21 | 220 | 3.2 | 4.8 | 0.00 | 0.00 | 0.00 | 47 | 1018.1 |
| 20260503170407 | 21 | 227 | 1.6 | 12.9 | 0.00 | 0.00 | 0.00 | 47 | 1018.1 |
| 20260503150406 | 22 | 230 | 4.8 | 16.1 | 0.00 | 0.00 | 0.00 | 42 | 1018.3 |
| 20260503131407 | 22 | 203 | 14.5 | 22.5 | 0.00 | 0.00 | 0.00 | 44 | 1019.9 |
| 20260503130907 | 22 | 226 | 6.4 | 16.1 | 0.00 | 0.00 | 0.00 | 44 | 1020.0 |
| 20260503081406 | 16 | 224 | 6.4 | 9.7 | 0.00 | 0.00 | 0.00 | 63 | 1021.3 |
| 20260503080906 | 16 | 203 | 8.0 | 9.7 | 0.00 | 0.00 | 0.00 | 64 | 1021.4 |
| 20260503080421 | 16 | 267 | 3.2 | 9.7 | 0.00 | 0.00 | 0.00 | 66 | 1021.4 |
| 20260503071907 | 15 | 46 | 1.6 | 8.0 | 0.00 | 0.00 | 0.00 | 72 | 1021.6 |
| 20260503071406 | 14 | 41 | 3.2 | 4.8 | 0.00 | 0.00 | 0.00 | 73 | 1021.7 |
| 20260503054906 | 11 | 40 | 1.6 | 3.2 | 0.00 | 0.00 | 0.00 | 78 | 1021.8 |
| 20260503051905 | 10 | 40 | 8.0 | 12.9 | 0.00 | 0.00 | 0.00 | 82 | 1021.6 |
| 20260503050405 | 9 | 32 | 6.4 | 11.3 | 0.00 | 0.00 | 0.00 | 82 | 1021.7 |
| 20260503043906 | 9 | 32 | 6.4 | 9.7 | 0.00 | 0.00 | 0.00 | 82 | 1021.6 |
| 20260503043405 | 9 | 32 | 4.8 | 11.3 | 0.00 | 0.00 | 0.00 | 82 | 1021.5 |
| 20260503041406 | 9 | 32 | 4.8 | 9.7 | 0.00 | 0.00 | 0.00 | 82 | 1021.5 |
| 20260503040408 | 9 | 32 | 6.4 | 11.3 | 0.00 | 0.00 | 0.00 | 81 | 1021.4 |
| 20260503034906 | 9 | 32 | 6.4 | 11.3 | 0.00 | 0.00 | 0.00 | 81 | 1021.4 |
| 20260503034405 | 9 | 32 | 6.4 | 11.3 | 0.00 | 0.00 | 0.00 | 81 | 1021.3 |
| 20260503033906 | 9 | 32 | 8.0 | 9.7 | 0.00 | 0.00 | 0.00 | 81 | 1021.3 |
| 20260503031906 | 10 | 30 | 4.8 | 11.3 | 0.00 | 0.00 | 0.00 | 80 | 1021.2 |
| 20260503030906 | 10 | 33 | 8.0 | 12.9 | 0.00 | 0.00 | 0.00 | 80 | 1021.2 |
| 20260503024406 | 10 | 42 | 8.0 | 11.3 | 0.00 | 0.00 | 0.00 | 80 | 1021.3 |
| 20260503023406 | 10 | 43 | 4.8 | 9.7 | 0.00 | 0.00 | 0.00 | 78 | 1021.3 |
| 20260503021405 | 11 | 43 | 6.4 | 9.7 | 0.00 | 0.00 | 0.00 | 77 | 1021.2 |
| 20260503020905 | 11 | 44 | 9.7 | 12.9 | 0.00 | 0.00 | 0.00 | 76 | 1021.1 |
| 20260503020406 | 11 | 52 | 8.0 | 12.9 | 0.00 | 0.00 | 0.00 | 76 | 1021.2 |
| 20260503014906 | 11 | 27 | 4.8 | 11.3 | 0.00 | 0.00 | 0.00 | 76 | 1021.1 |
| 20260503014405 | 11 | 27 | 8.0 | 12.9 | 0.00 | 0.00 | 0.00 | 76 | 1021.2 |